Location: Dattensoll
(49.9928°N, 9.8954°E)
Time: 21:18:35
(UTC+00:00)

Cosmos 2082 Rocket - Pass Details

Date: 19 May 2025
Orbit: 832 x 853 km, 71.0° (Epoch: 15 June)

Event Time Altitude Azimuth Distance (km) Brightness Sun altitude
Exits shadow 21:42:00 21° 192° (SSW) 1,780 3.4 -16.9°
Maximum altitude 21:45:45 68° 114° (ESE) 900 2.1 -17.2°
Drops below altitude 10° 21:51:20 10° 33° (NNE) 2,458 5.1 -17.5°
Sets 21:53:47 0° 31° (NNE) 3,399 5.9 -17.7°
